period_start,C,m1,H,J0,J1,J2,J3,J4,J5,JA,JB,JC,JD,JJ,JK,JN,#
2016-08-24 00:00:48,0.00,0.07,0.00,23.41,28.72,32.21,14.38,47.38,1002.77,2030.69,3453.89,3125.95,3547.31,599.90,587.12,9.59,0000 0000 0000 0000 000000
2016-08-24 00:05:49,-0.00,0.07,0.00,23.37,28.72,32.16,14.41,47.58,1002.85,2030.67,3453.67,3125.94,3547.17,599.85,587.09,9.64,0000 0000 0000 0000 000000
2016-08-24 00:10:51,0.01,0.07,0.00,23.39,28.72,32.06,14.40,47.52,1002.83,2030.61,3453.26,3125.92,3547.04,599.87,587.06,9.69,0000 0000 0000 0000 000000
2016-08-24 00:15:52,-0.00,0.07,0.00,23.30,28.72,32.05,14.44,47.48,1002.89,2030.47,3453.02,3125.51,3547.01,600.06,587.53,9.74,0000 0000 0000 0000 000000
2016-08-24 00:20:53,-0.01,0.07,0.00,23.11,28.70,31.99,14.38,47.59,1002.88,2030.43,3453.00,3125.47,3547.01,600.09,587.85,9.79,0000 0000 0000 0000 000000
2016-08-24 00:25:54,0.01,0.07,0.00,22.76,28.70,31.99,14.43,47.86,1002.78,2030.49,3453.00,3125.64,3547.01,599.91,588.30,9.84,0000 0000 0000 0000 000000
2016-08-24 00:30:55,0.02,0.07,0.00,22.64,28.67,31.99,14.46,47.85,1002.83,2030.89,3453.00,3125.95,3547.09,599.97,588.64,9.89,0000 0000 0000 0000 000000
2016-08-24 00:35:56,0.00,0.07,0.00,22.53,28.65,31.99,14.49,47.90,1002.87,2030.95,3453.02,3125.98,3547.14,600.19,589.08,9.94,0000 0000 0000 0000 000000
2016-08-24 00:40:57,-0.00,0.07,0.00,22.48,28.63,32.06,14.53,47.88,1002.93,2030.97,3453.02,3125.98,3547.62,599.78,588.81,9.99,0000 0000 0000 0000 000000
2016-08-24 00:45:58,0.00,0.07,0.00,22.45,28.61,32.05,14.54,47.88,1002.84,2030.99,3453.01,3125.99,3547.86,600.10,589.20,10.04,0000 0000 0000 0000 000000
2016-08-24 00:51:00,0.00,0.07,0.00,22.42,28.59,32.07,14.45,47.88,1002.73,2030.99,3453.01,3125.99,3547.91,599.77,588.90,10.09,0000 0000 0000 0000 000000
2016-08-24 00:56:01,0.00,0.07,0.00,22.41,28.57,32.07,14.47,47.76,1002.72,2030.99,3453.02,3126.00,3547.96,599.97,589.01,10.14,0000 0000 0000 0000 000000
2016-08-24 01:01:02,0.00,0.07,0.00,22.34,28.55,32.06,14.47,47.86,1002.65,2031.01,3453.00,3126.01,3547.96,599.82,588.97,10.19,0000 0000 0000 0000 000000
2016-08-24 01:06:04,0.00,0.07,0.00,22.33,28.53,32.07,14.56,47.84,1002.62,2031.03,3453.00,3126.02,3547.98,600.25,589.46,10.24,0000 0000 0000 0000 000000
2016-08-24 01:11:05,0.01,0.07,0.00,22.35,28.52,32.05,14.49,47.87,1002.60,2031.11,3453.00,3126.02,3547.97,600.04,589.14,10.29,0000 0000 0000 0000 000000
2016-08-24 01:16:06,0.01,0.07,0.00,22.27,28.50,32.07,14.46,47.82,1002.71,2031.37,3452.90,3126.02,3547.93,599.71,589.04,10.34,0000 0000 0000 0000 000000
2016-08-24 01:21:07,0.03,0.07,0.00,22.25,28.49,32.05,14.53,47.81,1002.68,2031.63,3452.53,3126.01,3547.81,600.13,589.43,10.39,0000 0000 0000 0000 000000
2016-08-24 01:26:08,0.03,0.07,0.00,22.25,28.47,32.03,14.52,47.81,1002.55,2031.83,3452.05,3126.00,3547.50,599.75,589.08,10.44,0000 0000 0000 0000 000000
2016-08-24 01:31:09,0.00,0.08,0.00,22.29,28.46,32.02,14.49,47.75,1002.53,2031.92,3452.01,3126.01,3547.19,600.16,589.43,10.49,0000 0000 0000 0000 000000
2016-08-24 01:36:11,0.00,0.08,0.00,22.31,28.45,32.00,14.47,47.74,1002.51,2031.96,3452.00,3126.00,3547.06,599.95,589.07,10.54,0000 0000 0000 0000 000000
2016-08-24 01:41:12,0.00,0.08,0.00,22.28,28.45,32.03,14.51,47.73,1002.47,2031.97,3451.99,3126.01,3547.01,600.30,589.39,10.59,0000 0000 0000 0000 000000
2016-08-24 01:46:14,0.00,0.08,0.00,22.31,28.44,31.97,14.45,47.73,1002.48,2031.99,3451.94,3126.00,3547.01,599.66,588.81,10.64,0000 0000 0000 0000 000000
2016-08-24 01:51:15,0.01,0.08,0.00,22.26,28.42,32.00,14.50,47.80,1002.47,2031.98,3451.61,3126.00,3547.00,599.90,589.12,10.69,0000 0000 0000 0000 000000
2016-08-24 01:56:16,0.00,0.08,0.00,22.23,28.42,32.02,14.52,47.77,1002.46,2031.98,3451.07,3126.00,3546.97,599.88,589.16,10.74,0000 0000 0000 0000 000000
2016-08-24 02:01:17,0.00,0.08,0.00,22.20,28.42,32.01,14.52,47.71,1002.47,2031.99,3451.01,3126.01,3546.97,600.04,589.42,10.79,0000 0000 0000 0000 000000
2016-08-24 02:06:18,0.00,0.08,0.00,22.24,28.42,32.01,14.51,47.77,1002.46,2031.99,3451.00,3126.01,3546.94,600.11,589.29,10.84,0000 0000 0000 0000 000000
2016-08-24 02:11:19,0.00,0.08,0.00,22.25,28.40,32.02,14.45,47.71,1002.46,2031.99,3451.00,3126.01,3546.94,600.00,589.22,10.89,0000 0000 0000 0000 000000
2016-08-24 02:16:20,0.00,0.08,0.00,22.25,28.40,31.99,14.48,47.73,1002.46,2031.99,3450.98,3126.01,3546.71,599.79,589.01,10.94,0000 0000 0000 0000 000000
2016-08-24 02:21:22,0.01,0.08,0.00,22.23,28.40,31.99,14.52,47.78,1002.46,2032.00,3450.70,3126.00,3546.26,600.31,589.42,10.99,0000 0000 0000 0000 000000
2016-08-24 02:26:23,0.02,0.08,0.00,22.22,28.40,32.00,14.50,47.78,1002.46,2032.01,3449.89,3125.89,3545.97,599.72,588.97,11.04,0000 0000 0000 0000 000000
2016-08-24 02:31:24,0.04,0.08,0.00,22.23,28.40,31.97,14.48,47.73,1002.46,2032.01,3448.97,3125.18,3545.26,600.20,589.48,11.09,0000 0000 0000 0000 000000
2016-08-24 02:36:25,0.06,0.08,0.00,22.20,28.39,32.01,14.49,47.72,1002.46,2032.00,3447.49,3124.32,3544.25,600.03,589.36,11.14,0000 0000 0000 0000 000000
2016-08-24 02:41:26,0.06,0.09,0.00,22.19,28.38,32.01,14.52,47.82,1002.45,2032.01,3445.78,3123.36,3543.18,600.07,589.41,11.19,0000 0000 0000 0000 000000
2016-08-24 02:46:27,0.03,0.09,0.00,22.11,28.37,32.02,14.50,47.77,1002.45,2032.01,3444.79,3122.93,3542.31,599.94,589.47,11.24,0000 0000 0000 0000 000000
2016-08-24 02:51:29,0.03,0.09,0.00,22.16,28.37,32.01,14.52,47.77,1002.42,2032.02,3444.02,3122.14,3541.90,600.18,589.59,11.29,0000 0000 0000 0000 000000
2016-08-24 02:56:30,0.01,0.09,0.00,22.12,28.37,32.00,14.46,47.67,1002.27,2032.03,3443.61,3122.01,3541.58,599.73,589.11,11.34,0000 0000 0000 0000 000000
2016-08-24 03:01:31,0.02,0.09,0.00,22.15,28.37,31.98,14.51,47.64,1002.08,2032.04,3442.90,3121.94,3541.03,600.14,589.34,11.39,0000 0000 0000 0000 000000
2016-08-24 03:06:33,0.04,0.09,0.00,22.15,28.35,31.97,14.51,47.70,1002.09,2032.04,3442.06,3121.19,3540.59,599.97,589.18,11.44,0000 0000 0000 0000 000000
2016-08-24 03:11:34,0.00,0.10,0.00,22.12,28.35,31.98,14.55,47.85,1002.21,2032.09,3442.00,3121.10,3540.32,600.08,589.49,11.49,0000 0000 0000 0000 000000
2016-08-24 03:16:36,-0.00,0.10,0.00,22.09,28.35,31.97,14.51,47.77,1002.12,2032.12,3442.00,3121.13,3540.17,600.11,589.44,11.54,0000 0000 0000 0000 000000
2016-08-24 03:21:37,0.02,0.10,0.00,22.08,28.33,31.95,14.53,47.78,1002.04,2032.29,3441.98,3121.25,3540.15,600.26,589.57,11.59,0000 0000 0000 0000 000000
2016-08-24 03:26:38,-0.01,0.10,0.00,22.12,28.32,31.93,14.51,47.79,1002.13,2032.33,3441.97,3121.31,3540.10,600.22,589.38,11.64,0000 0000 0000 0000 000000
2016-08-24 03:31:39,0.02,0.10,0.00,22.11,28.32,31.93,14.53,47.83,1002.17,2032.53,3441.93,3121.33,3540.03,599.90,589.23,11.69,0000 0000 0000 0000 000000
2016-08-24 03:36:41,0.02,0.10,0.00,22.07,28.32,31.94,14.48,47.86,1002.04,2032.74,3441.80,3121.47,3540.03,599.81,589.15,11.75,0000 0000 0000 0000 000000
2016-08-24 03:41:42,0.01,0.10,0.00,22.09,28.30,31.96,14.55,47.88,1002.00,2032.73,3441.49,3121.44,3540.01,600.00,589.37,11.80,0000 0000 0000 0000 000000
2016-08-24 03:46:43,0.01,0.10,0.00,22.05,28.30,31.94,14.46,47.87,1001.98,2032.92,3441.33,3121.70,3540.01,599.77,589.07,11.85,0000 0000 0000 0000 000000
2016-08-24 03:51:45,-0.00,0.10,0.00,22.05,28.29,31.97,14.53,47.91,1001.98,2032.94,3441.29,3121.87,3540.00,600.05,589.39,11.90,0000 0000 0000 0000 000000
2016-08-24 03:56:46,0.00,0.10,0.00,22.01,28.27,31.95,14.54,47.88,1001.98,2032.97,3441.06,3121.83,3540.00,600.03,589.41,11.95,0000 0000 0000 0000 000000
2016-08-24 04:01:47,0.00,0.10,0.00,22.02,28.27,31.94,14.43,47.77,1001.98,2032.99,3441.03,3121.94,3540.00,599.78,589.27,12.00,0000 0000 0000 0000 000000
2016-08-24 04:06:49,0.00,0.10,0.00,21.98,28.26,31.91,14.57,47.88,1001.98,2032.98,3441.02,3121.90,3539.99,600.16,589.57,12.05,0000 0000 0000 0000 000000
2016-08-24 04:11:50,0.00,0.10,0.00,21.96,28.25,31.92,14.47,47.94,1001.97,2032.99,3441.03,3121.96,3539.99,599.75,589.23,12.10,0000 0000 0000 0000 000000
2016-08-24 04:16:51,0.00,0.10,0.00,21.95,28.25,31.90,14.51,47.73,1001.97,2032.99,3441.00,3121.98,3539.99,600.02,589.56,12.15,0000 0000 0000 0000 000000
2016-08-24 04:21:52,0.00,0.10,0.00,21.90,28.23,31.88,14.53,47.87,1001.97,2032.99,3441.00,3121.96,3539.99,600.21,589.82,12.20,0000 0000 0000 0000 000000
2016-08-24 04:26:54,0.00,0.10,0.00,21.89,28.22,31.87,14.55,48.00,1001.97,2032.99,3440.99,3121.98,3539.99,600.21,589.93,12.25,0000 0000 0000 0000 000000
2016-08-24 04:31:55,0.00,0.10,0.00,21.89,28.22,31.88,14.48,47.98,1001.97,2032.99,3440.99,3121.99,3539.99,599.65,589.23,12.30,0000 0000 0000 0000 000000
2016-08-24 04:36:57,0.00,0.10,0.00,21.94,28.20,31.87,14.50,47.83,1001.95,2032.99,3440.99,3121.99,3539.99,599.90,589.40,12.35,0000 0000 0000 0000 000000
2016-08-24 04:41:58,0.00,0.10,0.00,21.93,28.20,31.86,14.48,47.85,1001.93,2032.99,3440.99,3121.99,3539.99,600.15,589.76,12.40,0000 0000 0000 0000 000000
2016-08-24 04:46:59,0.00,0.10,0.00,21.88,28.19,31.84,14.59,47.88,1001.80,2032.99,3440.99,3122.00,3539.99,600.10,589.74,12.45,0000 0000 0000 0000 000000
2016-08-24 04:52:00,0.00,0.10,0.00,21.93,28.17,31.83,14.52,47.86,1001.55,2033.00,3440.99,3122.01,3539.99,599.93,589.28,12.50,0000 0000 0000 0000 000000
2016-08-24 04:57:01,0.00,0.10,0.00,21.94,28.17,31.86,14.53,47.95,1001.50,2033.00,3441.00,3122.03,3539.99,599.78,589.08,12.55,0000 0000 0000 0000 000000
2016-08-24 05:02:03,0.00,0.10,0.00,21.88,28.17,31.83,14.50,47.83,1001.49,2033.01,3441.00,3122.06,3539.99,599.84,589.25,12.60,0000 0000 0000 0000 000000
2016-08-24 05:07:04,0.00,0.10,0.00,21.82,28.15,31.83,14.58,47.80,1001.50,2033.01,3441.00,3122.01,3539.99,600.22,589.73,12.65,0000 0000 0000 0000 000000
2016-08-24 05:12:05,0.00,0.10,0.00,21.83,28.15,31.80,14.51,47.89,1001.48,2033.01,3441.00,3122.04,3539.99,600.02,589.48,12.70,0000 0000 0000 0000 000000
2016-08-24 05:17:07,0.00,0.10,0.00,21.85,28.15,31.80,14.45,47.80,1001.48,2033.02,3441.00,3122.09,3539.99,600.23,589.61,12.75,0000 0000 0000 0000 000000
2016-08-24 05:22:08,-0.00,0.10,0.00,21.87,28.14,31.81,14.52,47.85,1001.48,2033.04,3441.00,3122.23,3539.99,599.94,589.35,12.80,0000 0000 0000 0000 000000
2016-08-24 05:27:09,0.00,0.10,0.00,21.83,28.12,31.80,14.47,47.78,1001.45,2033.06,3441.00,3122.29,3539.99,599.48,589.01,12.85,0000 0000 0000 0000 000000
2016-08-24 05:32:10,-0.00,0.10,0.00,21.84,28.12,31.77,14.53,47.86,1001.44,2033.04,3440.99,3122.33,3539.99,600.05,589.54,12.90,0000 0000 0000 0000 000000
2016-08-24 05:37:12,-0.01,0.10,0.00,21.84,28.12,31.78,14.52,47.95,1001.37,2033.05,3440.99,3122.54,3539.98,600.02,589.36,12.95,0000 0000 0000 0000 000000
2016-08-24 05:42:13,0.00,0.10,0.00,21.86,28.10,31.73,14.54,47.71,1001.28,2033.12,3440.99,3122.69,3539.98,599.93,589.42,13.00,0000 0000 0000 0000 000000
2016-08-24 05:47:14,0.01,0.10,0.00,21.80,28.10,31.74,14.48,47.67,1001.13,2033.29,3440.99,3122.90,3539.98,600.15,589.48,13.05,0000 0000 0000 0000 000000
2016-08-24 05:52:15,0.02,0.10,0.00,21.80,28.10,31.76,14.51,47.98,1001.16,2033.41,3440.98,3122.92,3539.99,599.89,589.27,13.10,0000 0000 0000 0000 000000
2016-08-24 05:57:16,-0.01,0.10,0.00,21.81,28.08,31.75,14.51,47.91,1001.22,2033.46,3440.98,3122.96,3539.98,600.40,589.62,13.15,0000 0000 0000 0000 000000
2016-08-24 06:02:17,0.02,0.10,0.00,21.83,28.07,31.72,14.53,47.92,1001.04,2033.58,3440.97,3122.98,3539.99,600.10,589.32,13.20,0000 0000 0000 0000 000000
2016-08-24 06:07:19,0.01,0.10,0.00,21.81,28.07,31.73,14.53,47.98,1001.00,2033.88,3440.98,3122.99,3539.99,599.86,589.01,13.25,0000 0000 0000 0000 000000
2016-08-24 06:12:20,-0.00,0.10,0.00,21.73,28.06,31.72,14.48,47.87,1001.00,2033.88,3440.98,3122.98,3539.99,599.97,589.38,13.30,0000 0000 0000 0000 000000
2016-08-24 06:17:22,0.01,0.10,0.00,21.78,28.05,31.71,14.50,47.92,1000.99,2033.94,3440.98,3122.99,3539.99,599.95,589.17,13.35,0000 0000 0000 0000 000000
2016-08-24 06:22:23,0.00,0.10,0.00,21.76,28.05,31.69,14.46,47.87,1000.99,2033.96,3440.99,3122.99,3539.99,600.17,589.56,13.40,0000 0000 0000 0000 000000
2016-08-24 06:27:24,-0.00,0.10,0.00,21.79,28.03,31.65,14.51,47.88,1000.96,2033.98,3440.99,3122.99,3539.99,600.23,589.53,13.45,0000 0000 0000 0000 000000
2016-08-24 06:32:25,0.00,0.10,0.00,21.76,28.02,31.67,14.46,48.03,1000.94,2033.98,3440.99,3122.99,3539.99,599.66,589.01,13.50,0000 0000 0000 0000 000000
2016-08-24 06:37:26,0.00,0.10,0.00,21.76,28.02,31.64,14.50,47.85,1000.87,2033.99,3440.98,3123.00,3539.99,600.05,589.29,13.55,0000 0000 0000 0000 000000
2016-08-24 06:42:28,0.00,0.10,0.00,21.73,28.01,31.67,14.51,47.84,1000.71,2033.99,3440.98,3123.00,3539.99,600.20,589.47,13.60,0000 0000 0000 0000 000000
2016-08-24 06:47:29,0.00,0.10,0.00,21.69,28.00,31.65,14.56,47.82,1000.55,2033.99,3440.98,3123.00,3539.99,600.26,589.47,13.65,0000 0000 0000 0000 000000
2016-08-24 06:52:30,0.00,0.10,0.00,21.71,28.00,31.66,14.57,47.80,1000.53,2033.99,3440.98,3123.00,3539.99,600.16,589.31,13.70,0000 0000 0000 0000 000000
2016-08-24 06:57:32,0.00,0.10,0.00,21.68,27.98,31.65,14.45,47.81,1000.51,2033.99,3440.98,3123.02,3539.99,599.88,589.00,13.75,0000 0000 0000 0000 000000
2016-08-24 07:02:33,0.00,0.10,0.00,21.67,27.97,31.64,14.51,47.92,1000.51,2033.99,3440.99,3123.06,3539.99,599.99,589.28,13.80,0000 0000 0000 0000 000000
2016-08-24 07:07:34,0.00,0.10,0.00,21.69,27.97,31.63,14.50,47.94,1000.51,2033.99,3440.99,3123.05,3540.00,599.75,588.99,13.85,0000 0000 0000 0000 000000
2016-08-24 07:12:35,0.00,0.10,0.00,21.65,27.96,31.64,14.48,48.00,1000.50,2033.99,3440.99,3123.09,3540.01,600.06,589.35,13.90,0000 0000 0000 0000 000000
2016-08-24 07:17:36,-0.00,0.10,0.00,21.59,27.95,31.64,14.50,48.13,1000.50,2033.99,3440.99,3123.20,3540.01,599.53,588.98,13.95,0000 0000 0000 0000 000000
2016-08-24 07:22:38,-0.01,0.10,0.00,21.63,27.95,31.62,14.53,47.98,1000.50,2033.99,3440.99,3123.47,3540.00,600.13,589.43,14.00,0000 0000 0000 0000 000000
2016-08-24 07:27:39,0.00,0.10,0.00,21.68,27.93,31.61,14.48,47.94,1000.45,2033.99,3440.99,3123.44,3539.99,600.19,589.36,14.05,0000 0000 0000 0000 000000
2016-08-24 07:32:40,-0.01,0.10,0.00,21.65,27.92,31.59,14.51,47.88,1000.41,2033.99,3440.99,3123.58,3539.99,599.97,589.24,14.11,0000 0000 0000 0000 000000
2016-08-24 07:37:42,-0.00,0.10,0.00,21.60,27.92,31.57,14.53,48.00,1000.26,2034.00,3440.99,3123.85,3540.00,600.33,589.53,14.16,0000 0000 0000 0000 000000
2016-08-24 07:42:43,0.00,0.10,0.00,21.61,27.91,31.55,14.55,47.99,1000.17,2034.00,3440.99,3123.97,3540.02,600.10,589.19,14.21,0000 0000 0000 0000 000000
2016-08-24 07:47:44,0.00,0.10,0.00,21.56,27.90,31.58,14.55,48.09,1000.20,2034.01,3440.99,3123.97,3540.02,600.12,589.39,14.26,0000 0000 0000 0000 000000
2016-08-24 07:52:46,0.00,0.10,0.00,21.52,27.90,31.57,14.43,47.85,1000.18,2034.01,3440.99,3123.98,3540.00,599.84,589.15,14.31,0000 0000 0000 0000 000000
2016-08-24 07:57:47,0.00,0.10,0.00,21.54,27.89,31.58,14.47,48.01,1000.09,2034.02,3440.99,3123.96,3540.00,599.95,589.26,14.36,0000 0000 0000 0000 000000
2016-08-24 08:02:48,0.00,0.10,0.00,21.55,27.87,31.56,14.50,47.88,1000.05,2034.01,3440.99,3123.99,3540.00,599.94,589.10,14.41,0000 0000 0000 0000 000000
2016-08-24 08:07:49,0.00,0.10,0.00,21.60,27.87,31.53,14.45,47.84,1000.03,2034.02,3440.99,3123.99,3540.00,599.93,589.11,14.46,0000 0000 0000 0000 000000
2016-08-24 08:12:51,0.00,0.10,0.00,21.54,27.86,31.49,14.49,48.04,1000.04,2034.03,3440.97,3123.99,3540.00,599.98,589.18,14.51,0000 0000 0000 0000 000000
2016-08-24 08:17:52,-0.00,0.10,0.00,21.60,27.85,31.51,14.50,47.98,1000.03,2034.07,3440.92,3123.99,3540.00,600.01,588.94,14.56,0000 0000 0000 0000 000000
2016-08-24 08:22:54,0.02,0.10,0.00,21.61,27.85,31.52,14.51,47.96,1000.02,2034.20,3440.94,3123.99,3540.00,600.09,589.10,14.61,0000 0000 0000 0000 000000
2016-08-24 08:27:55,-0.00,0.10,0.00,21.51,27.84,31.52,14.53,47.94,1000.02,2034.24,3440.92,3123.99,3540.00,599.97,589.30,14.66,0000 0000 0000 0000 000000
2016-08-24 08:32:57,0.01,0.10,0.00,21.52,27.82,31.51,14.60,47.94,1000.01,2034.42,3440.96,3123.99,3540.00,600.49,589.67,14.71,0000 0000 0000 0000 000000
2016-08-24 08:37:58,0.04,0.10,0.00,21.51,27.82,31.51,14.46,47.92,1000.01,2034.69,3440.93,3124.00,3540.00,599.67,588.95,14.76,0000 0000 0000 0000 000000
2016-08-24 08:42:59,0.00,0.11,0.00,21.51,27.81,31.50,14.49,47.91,1000.01,2034.82,3440.95,3124.01,3540.00,600.07,589.34,14.81,0000 0000 0000 0000 000000
2016-08-24 08:48:01,-0.00,0.11,0.00,21.49,27.80,31.46,14.56,48.05,1000.01,2034.82,3440.63,3124.00,3539.99,600.16,589.45,14.86,0000 0000 0000 0000 000000
2016-08-24 08:53:02,0.01,0.11,0.00,21.45,27.80,31.47,14.53,47.92,999.99,2034.88,3440.30,3124.00,3539.98,599.85,589.18,14.91,0000 0000 0000 0000 000000
2016-08-24 08:58:03,-0.00,0.11,0.00,21.47,27.79,31.45,14.46,47.98,999.96,2034.91,3440.20,3124.01,3539.99,599.46,588.73,14.96,0000 0000 0000 0000 000000
2016-08-24 09:03:04,0.00,0.11,0.00,21.46,27.77,31.44,14.50,48.02,999.92,2034.94,3440.13,3124.01,3539.99,599.95,589.28,15.01,0000 0000 0000 0000 000000
2016-08-24 09:08:06,0.00,0.11,0.00,21.43,27.77,31.45,14.52,47.94,999.91,2034.98,3440.17,3124.06,3539.99,600.08,589.43,15.06,0000 0000 0000 0000 000000
2016-08-24 09:13:07,-0.00,0.11,0.00,21.38,27.75,31.44,14.53,48.02,999.78,2034.98,3440.38,3124.19,3539.99,600.07,589.48,15.11,0000 0000 0000 0000 000000
2016-08-24 09:18:08,-0.01,0.11,0.00,21.41,27.75,31.42,14.52,47.99,999.66,2034.99,3440.58,3124.62,3539.99,600.27,589.47,15.16,0000 0000 0000 0000 000000
2016-08-24 09:23:09,-0.00,0.11,0.00,21.41,27.73,31.39,14.49,48.11,999.54,2034.99,3440.47,3124.77,3539.99,599.88,589.12,15.21,0000 0000 0000 0000 000000
2016-08-24 09:28:10,-0.00,0.11,0.00,21.40,27.72,31.36,14.47,48.02,999.55,2034.99,3440.50,3124.94,3539.99,599.39,588.58,15.26,0000 0000 0000 0000 000000
2016-08-24 09:33:12,-0.00,0.11,0.00,21.37,27.71,31.36,14.48,48.03,999.55,2034.99,3440.65,3124.97,3539.99,599.64,589.06,15.31,0000 0000 0000 0000 000000
2016-08-24 09:38:13,0.00,0.11,0.00,21.34,27.70,31.36,14.52,47.96,999.53,2034.99,3440.77,3124.98,3540.00,600.09,589.44,15.36,0000 0000 0000 0000 000000
2016-08-24 09:43:14,0.00,0.11,0.00,21.37,27.69,31.35,14.53,48.02,999.53,2035.00,3440.76,3124.99,3540.00,599.85,589.02,15.41,0000 0000 0000 0000 000000
2016-08-24 09:48:15,0.01,0.11,0.00,21.29,27.67,31.34,14.59,48.03,999.53,2035.01,3440.13,3124.97,3540.00,599.88,589.29,15.46,0000 0000 0000 0000 000000
2016-08-24 09:53:17,0.00,0.11,0.00,21.34,27.67,31.31,14.44,48.10,999.53,2035.01,3440.03,3124.99,3540.00,599.88,589.20,15.51,0000 0000 0000 0000 000000
2016-08-24 09:58:18,0.00,0.11,0.00,21.33,27.65,31.32,14.47,48.08,999.53,2035.01,3440.04,3124.99,3540.00,599.81,589.20,15.56,0000 0000 0000 0000 000000
2016-08-24 10:03:20,0.00,0.11,0.00,21.31,27.65,31.29,14.52,48.05,999.52,2035.03,3440.03,3124.99,3540.00,599.78,589.24,15.61,0000 0000 0000 0000 000000
2016-08-24 10:08:21,0.00,0.11,0.00,21.25,27.63,31.31,14.56,47.98,999.38,2035.09,3440.01,3124.99,3540.00,600.28,589.65,15.66,0000 0000 0000 0000 000000
2016-08-24 10:13:22,0.02,0.11,0.00,21.28,27.62,31.30,14.49,48.01,999.08,2035.29,3440.06,3124.99,3540.00,599.72,588.84,15.71,0000 0000 0000 0000 000000
2016-08-24 10:18:23,0.01,0.11,0.00,21.26,27.61,31.30,14.57,48.05,999.06,2035.48,3440.11,3125.02,3540.01,600.10,589.20,15.76,0000 0000 0000 0000 000000
2016-08-24 10:23:25,0.01,0.11,0.00,21.24,27.60,31.28,14.53,47.96,999.05,2035.64,3440.09,3125.03,3540.02,599.99,589.23,15.81,0000 0000 0000 0000 000000
2016-08-24 10:28:26,-0.00,0.11,0.00,21.21,27.58,31.29,14.45,47.86,999.04,2035.50,3440.05,3125.05,3540.01,600.01,589.40,15.86,0000 0000 0000 0000 000000
2016-08-24 10:33:27,0.02,0.11,0.00,21.23,27.57,31.28,14.48,47.92,999.04,2035.85,3440.18,3125.20,3540.03,600.00,589.31,15.91,0000 0000 0000 0000 000000
2016-08-24 10:38:29,0.00,0.11,0.00,21.14,27.55,31.25,14.47,47.99,999.02,2035.92,3440.26,3125.48,3540.07,599.96,589.42,15.96,0000 0000 0000 0000 000000
2016-08-24 10:43:30,-0.00,0.11,0.00,21.15,27.54,31.22,14.50,48.02,998.99,2035.96,3440.31,3125.62,3540.08,600.01,589.36,16.01,0000 0000 0000 0000 000000
2016-08-24 10:48:31,0.01,0.11,0.00,21.15,27.52,31.22,14.47,48.05,998.92,2035.98,3440.02,3125.29,3540.01,599.62,588.97,16.06,0000 0000 0000 0000 000000
2016-08-24 10:53:32,-0.01,0.11,0.00,21.17,27.51,31.22,14.54,48.04,998.68,2035.98,3440.05,3125.80,3540.06,600.05,589.30,16.11,0000 0000 0000 0000 000000
2016-08-24 10:58:33,-0.01,0.11,0.00,21.15,27.50,31.20,14.57,47.94,998.66,2035.98,3440.14,3125.96,3540.24,600.35,589.50,16.16,0000 0000 0000 0000 000000
2016-08-24 11:03:34,-0.00,0.11,0.00,21.16,27.49,31.17,14.57,48.01,998.78,2035.99,3440.28,3125.99,3540.38,600.28,589.51,16.21,0000 0000 0000 0000 000000
2016-08-24 11:08:36,-0.01,0.11,0.00,21.13,27.47,31.19,14.51,47.83,998.83,2035.99,3440.42,3125.99,3540.57,600.00,589.34,16.26,0000 0000 0000 0000 000000
2016-08-24 11:13:37,-0.00,0.11,0.00,21.10,27.46,31.19,14.51,48.00,998.69,2035.99,3440.56,3125.99,3540.70,600.04,589.35,16.31,0000 0000 0000 0000 000000
2016-08-24 11:18:38,0.00,0.11,0.00,21.07,27.45,31.18,14.55,47.96,998.56,2035.99,3440.61,3125.99,3540.91,600.08,589.40,16.36,0000 0000 0000 0000 000000
2016-08-24 11:23:39,-0.00,0.11,0.00,21.07,27.44,31.14,14.53,48.05,998.56,2036.01,3440.74,3125.99,3540.93,600.19,589.47,16.41,0000 0000 0000 0000 000000
2016-08-24 11:28:41,-0.00,0.11,0.00,21.07,27.42,31.14,14.47,47.92,998.53,2036.02,3440.92,3126.03,3540.97,600.14,589.52,16.46,0000 0000 0000 0000 000000
2016-08-24 11:33:42,-0.00,0.11,0.00,21.07,27.41,31.11,14.51,47.88,998.40,2036.03,3440.97,3126.05,3540.99,600.01,589.22,16.52,0000 0000 0000 0000 000000
2016-08-24 11:38:43,-0.00,0.11,0.00,21.10,27.40,31.08,14.52,47.96,998.39,2036.04,3440.96,3126.15,3540.98,600.21,589.32,16.57,0000 0000 0000 0000 000000
2016-08-24 11:43:45,-0.01,0.11,0.00,21.07,27.39,31.08,14.46,47.95,998.17,2036.04,3440.98,3126.40,3540.98,599.96,589.08,16.62,0000 0000 0000 0000 000000
2016-08-24 11:48:46,0.00,0.11,0.00,21.05,27.37,31.02,14.48,48.09,998.09,2036.09,3440.98,3126.70,3540.99,599.79,588.90,16.67,0000 0000 0000 0000 000000
2016-08-24 11:53:47,-0.00,0.11,0.00,21.04,27.36,31.05,14.49,48.05,998.06,2036.09,3440.97,3126.74,3540.99,600.05,588.99,16.72,0000 0000 0000 0000 000000
2016-08-24 11:58:49,0.00,0.11,0.00,21.02,27.35,31.05,14.50,48.03,998.06,2036.17,3440.97,3126.89,3540.99,599.77,588.91,16.77,0000 0000 0000 0000 000000
2016-08-24 12:03:50,0.01,0.11,0.00,20.99,27.34,31.05,14.44,47.95,998.06,2036.20,3440.98,3126.93,3540.99,599.75,588.99,16.82,0000 0000 0000 0000 000000
2016-08-24 12:08:51,0.03,0.11,0.00,20.98,27.32,31.01,14.54,48.09,997.98,2036.57,3440.99,3126.95,3540.99,600.16,589.22,16.87,0000 0000 0000 0000 000000
2016-08-24 12:13:53,0.02,0.11,0.00,20.99,27.32,31.02,14.54,48.13,997.87,2036.82,3440.99,3126.99,3541.00,600.05,589.11,16.92,0000 0000 0000 0000 000000
2016-08-24 12:18:55,0.08,0.11,0.00,20.98,27.30,31.01,14.44,48.00,997.73,2036.89,3439.79,3126.41,3540.46,599.78,588.76,16.97,0000 0000 0000 0000 000000
2016-08-24 12:23:56,0.01,0.11,0.00,20.93,27.30,31.01,14.53,48.07,997.58,2036.93,3438.59,3125.94,3539.99,599.99,589.04,17.02,0000 0000 0000 0000 000000
2016-08-24 12:28:57,-0.00,0.11,0.00,20.89,27.27,31.01,14.50,48.12,997.57,2036.97,3438.83,3125.99,3539.99,600.08,589.14,17.07,0000 0000 0000 0000 000000
2016-08-24 12:33:58,-0.00,0.11,0.00,20.88,27.27,30.97,14.52,48.06,997.57,2036.98,3438.92,3125.99,3539.99,600.11,589.18,17.12,0000 0000 0000 0000 000000
2016-08-24 12:38:59,-0.00,0.11,0.00,20.91,27.25,30.96,14.48,48.08,997.57,2036.99,3438.89,3125.99,3539.99,599.93,588.92,17.17,0000 0000 0000 0000 000000
2016-08-24 12:44:01,0.00,0.11,0.00,20.89,27.25,30.95,14.50,48.02,997.51,2036.99,3438.96,3125.99,3540.00,600.19,589.12,17.22,0000 0000 0000 0000 000000
2016-08-24 12:49:02,0.00,0.11,0.00,20.89,27.22,30.93,14.50,47.96,997.45,2036.99,3438.91,3126.00,3540.00,600.04,589.11,17.27,0000 0000 0000 0000 000000
2016-08-24 12:54:03,0.00,0.11,0.00,20.84,27.22,30.93,14.55,48.07,997.31,2036.99,3438.95,3126.01,3540.02,600.35,589.39,17.32,0000 0000 0000 0000 000000